Retour au catalogue

CZ-6A DEB

ActifPO
NORAD 61814·DEBRIS·🇨🇳 China

Lancé Aug 6, 2024 depuis Taiyuan Satellite Launch Center

Loading…

Prochains Passages (prochaines 24 heures)

TLE

FraisSource: Space-Track

Époque: Sep 14, 2026, 02:03 UTC

1 61814U 24140ACE 26257.08560409  .00006058  00000-0  12666-2 0  9997
2 61814  89.4808 306.4413 0041779 293.9730  65.7110 14.59199392105313

Suivez CZ-6A DEB en temps réel avec AllMySat

Download on the App Store